Date String (YYYY-MM-DD hh:mm:ss) UTC,Instrument flags,absolute air pressure of the measurement (hPa),sample flow rate (lpm),inlet stack bypass flow (lpm),air temperature of the measurement (°C),ambient temperature measured by the external sensor (°C),aerosol sample conditioner tube jacket temperature (°C),OPC LED temperature (°C),internal box temperature (°C),relative humidity of the measurement (%),span deviation,mass concentration of particles derived from Lorenz-Mie calculation of OPC scattering (μg/m³),mass concentration of particles derived from Lorenz-Mie calculation of OPC scattering (μg/m³),mass concentration of particles derived from Lorenz-Mie calculation of OPC scattering (μg/m³)
DateTimeUTC,F1_M11,P_M11,Q1_M11,Q2_M11,T1_M11,T2_M11,T3_M11,T4_M11,T5_M11,U1_M11,ZSPAN_M11,X2_M11,X0_M11,X1_M11
2023-08-22 10:00:00,SystemResetWarning,0835.0,5.00,000.00,028.2,026.9,000.0,036.6,030.0,19.1,0001.0,0007.60,0015.94,0006.24
2023-08-22 10:01:00,SystemResetWarning,0835.0,4.99,000.00,028.2,027.0,000.0,036.7,030.0,19.1,0001.1,0007.66,0016.02,0006.26
2023-08-22 10:02:00,SystemResetWarning,0835.0,5.00,000.00,028.3,027.1,000.0,036.7,030.0,19.0,0001.1,0007.70,0016.02,0006.27
2023-08-22 10:03:00,SystemResetWarning,0835.0,5.00,000.00,028.3,027.2,000.0,036.7,030.1,18.9,0001.1,0007.73,0015.80,0006.28
2023-08-22 10:04:00,SystemResetWarning,0835.0,5.00,000.00,028.4,027.3,000.0,036.7,030.1,18.9,0000.8,0007.59,0015.66,0006.27
2023-08-22 10:05:00,SystemResetWarning,0835.0,5.00,000.00,028.4,027.4,000.0,036.8,030.2,18.8,0000.5,0007.60,0015.69,0006.27
2023-08-22 10:06:00,SystemResetWarning,0835.0,5.00,000.00,028.4,027.4,000.0,036.8,030.2,18.8,0000.5,0007.63,0015.45,0006.27
2023-08-22 10:07:00,SystemResetWarning,0835.0,4.99,000.00,028.4,026.1,000.0,036.7,030.0,18.8,0000.7,0007.63,0015.69,0006.28
2023-08-22 10:08:00,SystemResetWarning,0835.0,5.00,000.00,028.4,024.7,000.0,036.6,029.7,18.8,0000.6,0007.63,0015.35,0006.29
2023-08-22 10:09:00,SystemResetWarning,0835.0,5.01,000.00,028.3,024.7,000.0,036.6,029.6,18.8,0000.8,0007.64,0015.74,0006.28
2023-08-22 10:10:00,SystemResetWarning,0835.0,5.01,000.00,028.2,024.9,000.0,036.6,029.5,18.9,0000.8,0007.60,0015.37,0006.27
2023-08-22 10:11:00,SystemResetWarning,0835.0,5.00,000.00,028.2,025.3,000.0,036.6,029.6,18.9,0000.8,0007.57,0014.83,0006.27
2023-08-22 10:12:00,SystemResetWarning,0835.0,5.00,000.00,028.2,025.6,000.0,036.7,029.7,19.0,0000.6,0007.54,0015.17,0006.26
2023-08-22 10:13:00,SystemResetWarning,0835.0,5.00,000.00,028.2,026.0,000.0,036.7,029.8,18.9,0000.7,0007.58,0016.26,0006.26
2023-08-22 10:14:00,SystemResetWarning,0835.0,5.00,000.00,028.2,026.2,000.0,036.7,029.8,18.9,0001.1,0007.61,0016.17,0006.26
2023-08-22 10:15:00,SystemResetWarning,0834.9,5.00,000.00,028.2,026.5,000.0,036.7,029.9,18.9,0001.5,0007.58,0015.80,0006.24
2023-08-22 10:16:00,SystemResetWarning,0835.0,5.01,000.00,028.3,026.7,000.0,036.7,029.9,19.0,0001.9,0007.54,0015.83,0006.23
2023-08-22 10:17:00,SystemResetWarning,0835.0,5.00,000.00,028.3,026.8,000.0,036.7,030.0,18.9,0002.0,0007.52,0016.05,0006.22
2023-08-22 10:18:00,SystemResetWarning,0835.1,5.00,000.00,028.3,027.0,000.0,036.8,030.0,19.0,0001.8,0007.55,0016.73,0006.22
2023-08-22 10:19:00,SystemResetWarning,0835.1,4.99,000.00,028.3,027.1,000.0,036.8,030.1,19.1,0001.9,0007.52,0016.60,0006.22
2023-08-22 10:20:00,SystemResetWarning,0835.1,4.99,000.00,028.4,027.2,000.0,036.8,030.1,19.0,0002.0,0007.52,0017.67,0006.23
2023-08-22 10:21:00,SystemResetWarning,0835.2,4.99,000.00,028.4,027.3,000.0,036.8,030.1,19.0,0002.2,0007.53,0017.73,0006.24
2023-08-22 10:22:00,SystemResetWarning,0835.1,5.00,000.00,028.4,027.4,000.0,036.8,030.2,19.1,0002.2,0007.51,0017.67,0006.24
2023-08-22 10:23:00,SystemResetWarning,0835.1,4.99,000.00,028.5,027.0,000.0,036.8,030.2,19.1,0002.2,0007.51,0017.57,0006.26
2023-08-22 10:24:00,SystemResetWarning,0835.1,5.00,000.00,028.4,025.2,000.0,036.7,029.9,19.1,0002.6,0007.49,0016.40,0006.26
2023-08-22 10:25:00,SystemResetWarning,0835.0,5.00,000.00,028.4,024.6,000.0,036.6,029.8,19.1,0002.3,0007.42,0016.44,0006.26
2023-08-22 10:26:00,SystemResetWarning,0835.1,5.01,000.00,028.3,024.8,000.0,036.7,029.7,19.2,0002.3,0007.48,0017.21,0006.28
2023-08-22 10:27:00,SystemResetWarning,0835.1,5.01,000.00,028.2,025.1,000.0,036.7,029.6,19.3,0002.3,0007.55,0017.43,0006.30
2023-08-22 10:28:00,SystemResetWarning,0835.0,4.99,000.00,028.2,025.5,000.0,036.7,029.7,19.3,0002.2,0007.58,0017.10,0006.32
2023-08-22 10:29:00,SystemResetWarning,0835.0,5.00,000.00,028.2,025.8,000.0,036.7,029.8,19.3,0002.2,0007.65,0016.77,0006.33
2023-08-22 10:30:00,SystemResetWarning,0835.1,5.00,000.00,028.2,026.1,000.0,036.7,029.8,19.3,0002.4,0007.66,0016.77,0006.34
2023-08-22 10:31:00,SystemResetWarning,0835.1,5.00,000.00,028.3,026.4,000.0,036.8,029.9,19.3,0002.5,0007.69,0016.07,0006.34
2023-08-22 10:32:00,SystemResetWarning,0835.2,5.00,000.00,028.3,026.6,000.0,036.8,030.0,19.3,0002.1,0007.69,0016.43,0006.33
2023-08-22 10:33:00,SystemResetWarning,0835.2,5.00,000.00,028.3,026.8,000.0,036.8,030.0,19.3,0002.0,0007.71,0017.13,0006.33
2023-08-22 10:34:00,SystemResetWarning,0835.2,5.00,000.00,028.3,026.9,000.0,036.8,030.0,19.3,0002.2,0007.74,0017.59,0006.34
2023-08-22 10:35:00,SystemResetWarning,0835.2,5.00,000.00,028.4,027.1,000.0,036.8,030.1,19.2,0001.7,0007.73,0017.74,0006.34
2023-08-22 10:36:00,SystemResetWarning,0835.2,4.99,000.00,028.4,027.2,000.0,036.8,030.1,19.2,0001.6,0007.78,0017.68,0006.35
2023-08-22 10:37:00,SystemResetWarning,0835.2,4.99,000.00,028.4,027.3,000.0,036.9,030.2,19.1,0001.5,0007.71,0016.77,0006.34
2023-08-22 10:38:00,SystemResetWarning,0835.2,5.00,000.00,028.5,026.9,000.0,036.8,030.1,19.1,0001.2,0007.65,0017.64,0006.32
2023-08-22 10:39:00,SystemResetWarning,0835.1,5.00,000.00,028.4,025.1,000.0,036.7,029.8,19.2,0001.1,0007.63,0018.76,0006.31
2023-08-22 10:40:00,SystemResetWarning,0835.1,5.00,000.00,028.3,024.6,000.0,036.6,029.6,19.3,0001.2,0007.49,0018.89,0006.29
2023-08-22 10:41:00,SystemResetWarning,0835.1,5.01,000.00,028.2,024.8,000.0,036.7,029.5,19.3,0001.5,0007.52,0018.79,0006.29
2023-08-22 10:42:00,SystemResetWarning,0835.2,5.01,000.00,028.2,025.1,000.0,036.7,029.5,19.4,0001.4,0007.53,0018.66,0006.29
2023-08-22 10:43:00,SystemResetWarning,0835.1,5.00,000.00,028.2,025.5,000.0,036.7,029.6,19.4,0001.4,0007.50,0018.28,0006.28
2023-08-22 10:44:00,SystemResetWarning,0835.1,5.00,000.00,028.2,025.8,000.0,036.7,029.7,19.4,0001.0,0007.48,0017.65,0006.27
2023-08-22 10:45:00,SystemResetWarning,0835.1,5.00,000.00,028.2,026.1,000.0,036.7,029.8,19.3,0000.4,0007.45,0017.06,0006.26
2023-08-22 10:46:00,SystemResetWarning,0835.0,5.00,000.00,028.2,026.3,000.0,036.7,029.8,19.2,0000.3,0007.39,0016.53,0006.26
2023-08-22 10:47:00,SystemResetWarning,0835.0,5.00,000.00,028.2,026.6,000.0,036.7,029.9,19.3,0000.4,0007.38,0016.36,0006.26
2023-08-22 10:48:00,SystemResetWarning,0835.0,5.00,000.00,028.3,026.7,000.0,036.8,030.0,19.2,0000.2,0007.38,0016.35,0006.25
2023-08-22 10:49:00,SystemResetWarning,0835.0,5.00,000.00,028.3,026.9,000.0,036.8,030.0,19.2,0000.3,0007.39,0015.93,0006.25
2023-08-22 10:50:00,SystemResetWarning,0835.0,4.99,000.00,028.3,027.0,000.0,036.8,030.0,19.1,0000.2,0007.38,0014.52,0006.25
2023-08-22 10:51:00,SystemResetWarning,0835.1,5.00,000.00,028.4,027.1,000.0,036.8,030.1,19.0,-000.0,0007.41,0014.19,0006.25
2023-08-22 10:52:00,SystemResetWarning,0835.1,4.99,000.00,028.4,027.2,000.0,036.8,030.1,18.9,-000.3,0007.39,0013.76,0006.25
2023-08-22 10:53:00,SystemResetWarning,0835.1,5.00,000.00,028.4,027.3,000.0,036.9,030.2,18.9,-000.2,0007.30,0013.15,0006.24
2023-08-22 10:54:00,SystemResetWarning,0835.1,5.00,000.00,028.5,026.9,000.0,036.8,030.1,18.8,-000.1,0007.33,0013.74,0006.26
2023-08-22 10:55:00,SystemResetWarning,0835.2,5.00,000.00,028.4,024.7,000.0,036.7,029.8,18.9,0000.6,0007.40,0014.22,0006.29
2023-08-22 10:56:00,SystemResetWarning,0835.1,5.01,000.00,028.3,023.5,000.0,036.6,029.5,19.0,0001.4,0007.43,0014.26,0006.33
2023-08-22 10:57:00,SystemResetWarning,0835.1,5.01,000.00,028.2,023.6,000.0,036.5,029.3,19.1,0001.8,0007.52,0014.84,0006.35
2023-08-22 10:58:00,SystemResetWarning,0835.1,5.00,000.00,028.1,024.0,000.0,036.6,029.2,19.2,0002.1,0007.58,0015.61,0006.38
2023-08-22 10:59:00,SystemResetWarning,0835.1,5.00,000.00,028.0,024.4,000.0,036.6,029.3,19.2,0002.4,0007.63,0016.20,0006.40
